ONEWEB-0290 (49080 NORAD) Tracking and Keplerian Element Data

This shows tracking and keplerian element data for the satellite.

Feedback or suggestion? Click here.




ElementValue
Catalog49080
NameONEWEB-0290
Epoch Orbit361
Epoch Day261.91667824
Epoch Year2021
RAAN356.5291
Inclination87.4207
Eccentricity0.0022015
Argument of Perigee195.7317
Mean Anonmoly13.0504
Mean Motion15.14863806
Decay Rate-0.01011274
L11 49080U 21075F 21261.91667824 -.01011274 00000-0 -58785-1 0 9993
L22 49080 87.4207 356.5291 0022015 195.7317 13.0504 15.14863806 3610

Live tracking and technical data element details for ONEWEB-0290 (NORAD 49080). ONEWEB-0290 can be tracked NOW for your location showing map with azimuth and elevation plus other details from your city location.

Track the satellite on the map from your city or location and see movement details for azimuth, elevation, latitude, longitude, range, height, and movement on the map or in text.







IsCatalogInMostPopularTable: catalog: 49080, numindb: 10
Update: records affected: 1



GetName: 49080 ONEWEB-0290

Hit Count: updated at: Fri, 24 Sep 2021 18:55:30 GMT